Weather in Logoysk

Belarus     54˚12′01″N   27˚50′51″E
temp.,
°C
wind,
m/s
gust,
m/s
humid.,
%
clouds,
%
prec.,
mm/h
press.,
hPa
HPBL,
m
3 december, thu
thu300:00−4˚se479591 0.1 1027355
03:00−5˚se479692 0.2 1026305
06:00−4˚se489691 0.3 1025382
09:00−4˚sse599594 0.7 1025447
12:00−3˚sse699397 0.2 1024475
15:00−2˚se6109398 0.4 1023592
18:00−2˚se61193100 0.1 1022533
21:00−1˚sse7129399 0.3 1022606
4 december, fri
fri400:00−1˚sse81293100 0.0 1022663
03:00sse71391100 0.1 1021701
06:00se71495100 0.0 1019585
09:00+1˚sse81497100 0.0 1020774
12:00+2˚sse91593100 0.0 1019879
15:00+2˚se91591100 0.0 1019822
18:00+2˚sse81592100 0.0 1020792
21:00+2˚sse81693100 0.0 1020749
5 december, sat
sat500:00+3˚sse91693100 0.0 1021656
03:00+2˚sse91792100 0.0 1022628
06:00+2˚se91592100 0.0 1022558
09:00+2˚se81593100 0.1 1023498
12:00+2˚se81593100 0.1 1024568
15:00+2˚se91591100 0.1 1024615
18:00+2˚se8159191 0.0 1025617
21:00+2˚se8159194 0.0 1026649
6 december, sun
sun600:00+1˚se8148998 0.0 1026704
03:00+1˚se8148899 0.0 1027643
06:00se8138785 0.0 1027654
09:00−1˚se8148789 0.0 1028645
12:00−2˚se8158185 0.0 1029555
15:00−1˚se8147442 0.0 1028580
18:00−2˚se815620 0.0 1028500
21:00−3˚se816640 0.0 1028498
7 december, mon
mon700:00−3˚se815670 0.0 1028533
03:00−3˚se816640 0.0 1028550
06:00−4˚se815620 0.0 1027552
09:00−4˚se915600 0.0 1027533
12:00−3˚se9155511 0.0 1027546
15:00−2˚se9165413 0.0 1026558
18:00−4˚se8155824 0.0 1027521
21:00−4˚se8155737 0.0 1027492